[[[{"header":{"parameterUnit":"kt","parameterCategory":2,"dx":1,"dy":1,"la1":30.253999710083008,"la2":30.299108505249023,"lo1":-89.0895004272461,"lo2":-89.04439544677734,"nx":28,"ny":28,"refTime":"2022-10-08T21:00:00:Z","depth":0,"parameterNumber":1,"parameterNumberName":"U-component_of_WINDS"},"data":[-7.019,-7.0245,-7.0224,-7.0277,-7.0266,-7.0299,-7.0303,-7.0307,-7.0305,-7.0342,-7.036,-7.0343,-7.0331,-7.0348,-7.0366,-7.0358,-7.0368,-7.0405,-7.039,-7.0244,-7.0222,-7.0201,-7.0187,-7.0407,-7.0408,-7.0545,-7.0546,-7.0547,-7.009,-7.008,-7.0101,-7.0106,-7.0124,-7.0076,-7.0076,-7.0094,-7.0125,-7.0121,-7.0137,-7.0167,-7.0189,-7.0164,-7.0181,-7.0207,-7.0185,-7.0214,-7.0212,-7.0211,-7.0054,-7.0038,-7.0231,-7.0231,-7.0231,-7.0231,-7.0231,-7.0231,-6.9902,-6.9935,-6.9924,-6.9946,-6.9942,-6.9946,-6.9974,-6.9952,-6.9972,-6.9985,-6.9953,-6.9987,-6.9979,-6.9987,-6.9984,-7.0011,-6.9975,-6.9999,-7.0005,-7.0012,-7.0024,-6.9833,-7.0012,-7.0011,-7.0011,-7.001,-7.001,0,-6.9757,-6.9736,-6.9752,-6.9764,-6.9778,-6.9784,-6.9786,-6.9803,-6.9748,-6.9767,-6.9792,-6.9803,-6.9824,-6.9846,-6.9855,-6.9846,-6.9797,-6.9789,-6.9806,-6.9823,-6.9838,-6.9833,-6.9579,-6.9784,-6.9782,-6.978,-6.9779,-6.9778,-6.9567,-6.9607,-6.9583,-6.9599,-6.9593,-6.9618,-6.9628,-6.9576,-6.959,-6.9584,-6.9616,-6.9636,-6.9649,-6.9694,-6.9666,-6.9682,-6.9659,-6.974,-6.9661,-6.9676,-6.9662,-6.9661,-6.9666,-6.9757,-6.976,-6.9762,-6.9764,0,-6.9463,-6.9422,-6.9477,-6.9448,-6.9442,-6.9487,-6.9463,-6.9493,-6.9467,-6.9506,-6.9512,-6.947,-6.9495,-6.9453,-6.9473,-6.9451,-6.953,-6.9505,-6.9533,-6.9526,-6.9596,-6.9591,-6.9826,-6.9855,-6.9624,-6.9626,-6.9628,0,-6.9285,-6.934,-6.9277,-6.931,-6.937,-6.9314,-6.9375,-6.9357,-6.9347,-6.9377,-6.9313,-6.9343,-6.9283,-6.9308,-6.9274,-6.933,-6.9333,-6.932,-6.9311,-6.9326,-6.9329,-6.9333,-6.9323,-6.9285,-6.9284,-6.9283,-6.9282,0,-6.9127,-6.9155,-6.9209,-6.9209,-6.9182,-6.9209,-6.9199,-6.9186,-6.9196,-6.9202,-6.9208,-6.922,-6.9226,-6.9237,-6.9194,-6.9142,-6.926,-6.9179,-6.9247,-6.9248,-6.9275,-6.9274,-6.9492,-6.9281,-6.928,-6.928,-6.9279,0,-6.8976,-6.8982,-6.9066,-6.9042,-6.9051,-6.9087,-6.9093,-6.9113,-6.9104,-6.9084,-6.9089,-6.904,-6.9083,-6.9007,-6.9067,-6.9011,-6.9022,-6.9012,-6.9016,-6.9018,-6.8934,-6.9065,-6.9276,-6.9297,-6.9021,-6.9018,-6.9016,0,-6.8808,-6.888,-6.8831,-6.8912,-6.8939,-6.8864,-6.8903,-6.8895,-6.8872,-6.8892,-6.8866,-6.889,-6.8824,-6.8825,-6.886,-6.8835,-6.8906,-6.8823,-6.8857,-6.8859,-6.8863,-6.9056,-6.9099,-6.9234,-6.8988,-6.8991,-6.8993,0,-6.8671,-6.8635,-6.8653,-6.865,-6.8629,-6.8651,-6.8694,-6.8704,-6.8721,-6.8718,-6.8754,-6.8785,-6.8737,-6.8739,-6.87,-6.8738,-6.8856,-6.8681,-6.868,-6.8716,-6.8969,-6.901,-6.9033,-6.8822,-6.8825,-6.8828,-6.8971,0,-6.8458,-6.8486,-6.8531,-6.8525,-6.8534,-6.858,-6.8532,-6.8548,-6.851,-6.8483,-6.8534,-6.8515,-6.8525,-6.8538,-6.8499,-6.86,-6.8577,-6.8525,-6.8447,-6.8574,-6.862,-6.8638,-6.8383,-6.838,-6.8378,-6.8376,0,0,-6.8307,-6.8346,-6.8289,-6.8328,-6.8332,-6.8252,-6.8306,-6.8301,-6.8292,-6.8298,-6.8254,-6.8295,-6.828,-6.8348,-6.8383,-6.8386,-6.8401,-6.8357,-6.8513,-6.8529,-6.8543,-6.8593,-6.8613,-6.8373,-6.8372,-6.8371,-6.837,0,-6.8218,-6.8203,-6.8256,-6.8248,-6.8233,-6.8201,-6.8214,-6.8185,-6.817,-6.8218,-6.8151,-6.8176,-6.8208,-6.8203,-6.8204,-6.8348,-6.8297,-6.8355,-6.8449,-6.8493,-6.8512,-6.8528,-6.8581,-6.86,-6.8365,-6.8365,-6.8366,0,-6.8076,-6.8054,-6.8073,-6.8077,-6.8066,-6.8094,-6.8001,-6.8034,-6.8055,-6.7965,-6.8013,-6.7996,-6.7984,-6.8052,-6.8081,-6.8042,-6.8205,-6.8144,-6.8156,-6.8158,-6.8199,-6.8221,-6.8241,-6.7982,-6.798,-6.7979,0,0,-6.8006,-6.8031,-6.7989,-6.8054,-6.8052,-6.8004,-6.8013,-6.7974,-6.7964,-6.796,-6.7936,-6.7929,-6.7947,-6.796,-6.7974,-6.8056,-6.805,-6.8098,-6.8117,-6.8132,-6.8142,-6.8187,-6.8209,-6.7975,-6.7975,-6.7975,0,0,-6.7972,-6.7926,-6.7888,-6.7956,-6.7948,-6.7911,-6.7953,-6.7905,-6.7912,-6.7901,-6.7837,-6.7832,-6.7895,-6.788,-6.7829,-6.7946,-6.787,-6.7881,-6.7953,-6.7975,-6.7993,-6.7996,-6.773,0,0,0,0,0,-6.7855,-6.7932,-6.7897,-6.7901,-6.7904,-6.793,-6.793,-6.7879,-6.7827,-6.7861,-6.7834,-6.7776,-6.784,-6.7792,-6.7798,-6.7856,-6.792,-6.793,-6.7939,-6.805,-6.8074,-6.8094,0,0,0,0,0,0,-6.7856,-6.7861,-6.7895,-6.7862,-6.7862,-6.7927,-6.7828,-6.7816,-6.7822,-6.781,-6.7784,-6.7776,-6.7732,-6.7786,-6.7792,-6.7848,-6.7728,-6.7924,-6.7932,-6.7939,-6.8058,-6.8078,-6.8094,0,0,0,0,0,-6.7857,-6.7861,-6.7878,-6.7861,-6.7861,-6.7811,-6.7824,-6.7813,-6.7817,-6.7773,-6.7763,-6.7777,-6.7735,-6.7737,-6.7789,-6.7847,-6.7724,-6.7726,-6.7929,-6.7936,-6.7941,-6.8068,0,0,0,0,0,0,-6.7857,-6.7851,-6.7877,-6.7875,-6.7827,-6.7806,-6.7801,-6.7812,-6.7779,-6.777,-6.7763,-6.7755,-6.7739,-6.7739,-6.774,-6.7849,-6.772,-6.7723,-6.7724,-6.7934,-6.7939,-6.7944,0,0,0,0,0,0,-6.7849,-6.785,-6.7876,-6.7836,-6.7829,-6.7802,-6.7797,-6.7834,-6.7779,-6.7771,-6.7762,-6.776,-6.7737,-6.7741,-6.7742,-6.7801,-6.7718,-6.772,-6.7721,-6.7722,-6.7938,-6.7942,0,0,0,0,0,0,-6.7848,-6.785,-6.7836,-6.7831,-6.7825,-6.78,-6.7833,-6.7839,-6.7745,-6.7773,-6.7735,-6.7731,-6.7741,-6.774,-6.7743,-6.7802,-6.7801,-6.7718,-6.7719,-6.772,-6.7721,0,0,0,0,0,0,0,-6.7848,-6.7852,-6.7888,-6.7827,-6.7821,-6.7858,-6.7857,-6.7857,-6.7744,-6.774,-6.7736,-6.7732,-6.7705,-6.7707,-6.771,-6.7804,0,0,-6.7718,-6.7719,0,0,0,0,0,0,0,0,-6.785,-6.7852,-6.7888,-6.7887,-6.7887,-6.7858,-6.7857,-6.7857,-6.7743,-6.774,-6.7737,-6.7734,-6.7706,-6.7708,-6.771,0,0,0,0,0,0,0,0,0,0,0,0,0,0,0,-6.7888,-6.7887,0,-6.7858,-6.7857,-6.7857,-6.7743,-6.774,-6.7738,-6.7735,-6.7706,-6.7708,-6.771,0,0,0,0,0,0,0,0,0,0,0,0,0,0,0,0,0,0,0,0,0,0,0,0,0,0,0,0,0,0,0,0,0,0,0,0,0,0,0,0,0,0,0,0,0,0,0,0,0,0,0,0,0,0,0,0,0,0,0,0,0,0,0,0,0,0,0,0,0]}],[{"header":{"parameterUnit":"kt","parameterCategory":2,"dx":1,"dy":1,"la1":30.253999710083008,"la2":30.299108505249023,"lo1":-89.0895004272461,"lo2":-89.04439544677734,"nx":28,"ny":28,"refTime":"2022-10-08T21:00:00:Z","depth":0,"parameterNumber":2,"parameterNumberName":"V-component_of_WINDS"},"data":[-7.7006,-7.7134,-7.7179,-7.7344,-7.7412,-7.7534,-7.7591,-7.767,-7.7744,-7.7893,-7.7986,-7.8043,-7.8134,-7.8255,-7.8359,-7.8381,-7.8423,-7.8437,-7.8462,-7.8362,-7.8351,-7.8341,-7.8315,-7.8444,-7.8444,-7.8561,-7.8562,-7.8563,-7.6933,-7.7002,-7.7102,-7.7229,-7.7316,-7.7331,-7.7433,-7.7504,-7.7611,-7.7702,-7.7796,-7.793,-7.8041,-7.8129,-7.8243,-7.8304,-7.8318,-7.8332,-7.833,-7.8345,-7.8238,-7.8211,-7.8319,-7.8319,-7.8319,-7.8319,-7.8319,-7.8319,-7.6811,-7.6885,-7.6989,-7.7098,-7.7174,-7.7258,-7.7336,-7.7405,-7.7503,-7.7628,-7.766,-7.7782,-7.7881,-7.804,-7.8103,-7.8199,-7.8191,-7.8221,-7.8229,-7.8237,-7.824,-7.8073,-7.822,-7.822,-7.8219,-7.8219,-7.8219,0,-7.6737,-7.677,-7.6868,-7.6981,-7.7062,-7.7153,-7.7243,-7.7293,-7.7375,-7.7452,-7.7567,-7.7641,-7.7786,-7.79,-7.8015,-7.8076,-7.81,-7.8105,-7.8127,-7.8115,-7.8091,-7.8109,-7.7938,-7.8101,-7.81,-7.81,-7.8099,-7.8099,-7.6621,-7.67,-7.6829,-7.6892,-7.6953,-7.7053,-7.7122,-7.7188,-7.7259,-7.7379,-7.744,-7.7554,-7.7649,-7.7824,-7.7903,-7.8011,-7.8024,-7.8082,-7.804,-7.8026,-7.803,-7.8026,-7.8036,-7.809,-7.8091,-7.8092,-7.8093,0,-7.6552,-7.6625,-7.6761,-7.6881,-7.6913,-7.6992,-7.7095,-7.717,-7.7227,-7.7339,-7.7369,-7.746,-7.7571,-7.764,-7.778,-7.7813,-7.7947,-7.7955,-7.7915,-7.7922,-7.7983,-7.7978,-7.8166,-7.8195,-7.8058,-7.8059,-7.806,0,-7.6483,-7.6584,-7.6687,-7.6762,-7.6877,-7.6941,-7.7053,-7.7113,-7.72,-7.7288,-7.7325,-7.7407,-7.7482,-7.7575,-7.7623,-7.7745,-7.7769,-7.7803,-7.7816,-7.7803,-7.7799,-7.7843,-7.7838,-7.7835,-7.7834,-7.7833,-7.7833,0,-7.6371,-7.6542,-7.6664,-7.6715,-7.6852,-7.6907,-7.6967,-7.7063,-7.7129,-7.7225,-7.727,-7.7376,-7.7436,-7.7518,-7.758,-7.7549,-7.7728,-7.7699,-7.7763,-7.7762,-7.7801,-7.7799,-7.7945,-7.7831,-7.7831,-7.7831,-7.783,0,-7.6327,-7.6424,-7.6589,-7.6705,-7.6747,-7.6827,-7.6938,-7.7022,-7.712,-7.7157,-7.7233,-7.7266,-7.7375,-7.7342,-7.7494,-7.7438,-7.7494,-7.7535,-7.7541,-7.7558,-7.752,-7.7598,-7.7726,-7.7745,-7.757,-7.7568,-7.7566,0,-7.6181,-7.6366,-7.6424,-7.6579,-7.6674,-7.6712,-7.6801,-7.6887,-7.6943,-7.7032,-7.7093,-7.7193,-7.7182,-7.7224,-7.7289,-7.7357,-7.743,-7.7348,-7.7479,-7.7483,-7.7456,-7.7574,-7.7578,-7.769,-7.7539,-7.7542,-7.7544,0,-7.6077,-7.6242,-7.6265,-7.6327,-7.6451,-7.653,-7.6631,-7.6745,-7.6802,-7.6892,-7.6981,-7.7121,-7.7121,-7.7187,-7.7225,-7.729,-7.7382,-7.728,-7.7284,-7.7299,-7.753,-7.7534,-7.7552,-7.7394,-7.7397,-7.74,-7.7523,0,-7.6002,-7.6103,-7.6168,-7.6299,-7.6371,-7.647,-7.6545,-7.661,-7.6641,-7.6697,-7.6826,-7.6913,-7.7028,-7.7065,-7.7094,-7.7219,-7.721,-7.7207,-7.7182,-7.7257,-7.73,-7.7317,-7.7113,-7.7112,-7.7112,-7.7112,0,0,-7.5846,-7.5992,-7.6051,-7.6152,-7.6217,-7.6254,-7.6354,-7.642,-7.6553,-7.6597,-7.6583,-7.6794,-7.6865,-7.7014,-7.7043,-7.7087,-7.7118,-7.7088,-7.722,-7.7232,-7.7243,-7.7287,-7.7304,-7.7111,-7.7111,-7.7111,-7.7111,0,-7.5835,-7.5906,-7.6004,-7.6076,-7.6185,-7.624,-7.6263,-7.6377,-7.6418,-7.6543,-7.6572,-7.6658,-7.6822,-7.6896,-7.6954,-7.7071,-7.7089,-7.71,-7.714,-7.7215,-7.7227,-7.7238,-7.7283,-7.7298,-7.711,-7.711,-7.711,0,-7.5748,-7.5833,-7.5887,-7.6034,-7.6105,-7.6201,-7.6193,-7.6293,-7.6365,-7.6399,-7.6523,-7.6581,-7.6684,-7.6813,-7.6873,-7.6863,-7.7059,-7.7008,-7.7012,-7.7021,-7.7097,-7.7111,-7.7124,-7.6956,-7.6955,-7.6954,0,0,-7.5729,-7.5822,-7.5932,-7.6037,-7.608,-7.6163,-7.622,-7.6257,-7.6348,-7.6385,-7.646,-7.6547,-7.6645,-7.6707,-7.6801,-7.6932,-7.696,-7.6986,-7.6993,-7.6999,-7.7011,-7.7088,-7.7102,-7.6951,-7.6951,-7.6951,0,0,-7.5719,-7.5852,-7.5867,-7.5998,-7.6084,-7.62,-7.6261,-7.6281,-7.6374,-7.6371,-7.6436,-7.6462,-7.6584,-7.6639,-7.6589,-7.6794,-7.6767,-7.6781,-7.6754,-7.6764,-7.6772,-7.6757,-7.6593,0,0,0,0,0,-7.5747,-7.5836,-7.5848,-7.5881,-7.6066,-7.6193,-7.6217,-7.6274,-7.6255,-7.6302,-7.6368,-7.6382,-7.6626,-7.6583,-7.6614,-7.6671,-7.691,-7.6918,-7.6924,-7.6921,-7.6931,-7.6939,0,0,0,0,0,0,-7.576,-7.58,-7.5846,-7.5964,-7.6006,-7.619,-7.6171,-7.6189,-7.6251,-7.6252,-7.6369,-7.6386,-7.6436,-7.6571,-7.6598,-7.6651,-7.6584,-7.6913,-7.6919,-7.6925,-7.6924,-7.6932,-7.6939,0,0,0,0,0,-7.5771,-7.5803,-7.6084,-7.5963,-7.6,-7.6097,-7.6168,-7.6183,-7.6232,-7.6334,-7.6352,-7.6269,-7.6436,-7.6463,-7.6587,-7.6637,-7.6566,-7.6575,-7.6917,-7.6922,-7.6926,-7.6928,0,0,0,0,0,0,-7.5779,-7.5818,-7.6093,-7.6106,-7.5934,-7.6088,-7.6114,-7.6177,-7.6311,-7.6329,-7.6237,-7.6236,-7.6437,-7.6458,-7.6478,-7.6629,-7.655,-7.6561,-7.6567,-7.6921,-7.6925,-7.6928,0,0,0,0,0,0,-7.5801,-7.5829,-7.61,-7.6059,-7.6069,-7.6079,-7.6102,-7.6215,-7.6312,-7.6206,-7.621,-7.6235,-7.6406,-7.6454,-7.6471,-7.6645,-7.6539,-7.6548,-7.6555,-7.656,-7.6924,-7.6927,0,0,0,0,0,0,-7.5814,-7.5838,-7.6056,-7.6063,-7.6071,-7.6224,-7.618,-7.6365,-7.6278,-7.62,-7.6272,-7.6269,-7.6402,-7.642,-7.6465,-7.6632,-7.6642,-7.6539,-7.6546,-7.655,-7.6553,0,0,0,0,0,0,0,-7.5824,-7.565,-7.6015,-7.6067,-7.6073,-7.6229,-7.6232,-7.6236,-7.6277,-7.6275,-7.6272,-7.627,-7.6483,-7.6494,-7.6504,-7.6622,0,0,-7.6538,-7.6543,0,0,0,0,0,0,0,0,-7.5641,-7.5647,-7.6015,-7.6018,-7.602,-7.6229,-7.6232,-7.6235,-7.6277,-7.6275,-7.6273,-7.6271,-7.6486,-7.6495,-7.6503,0,0,0,0,0,0,0,0,0,0,0,0,0,0,0,-7.6015,-7.6018,0,-7.623,-7.6232,-7.6235,-7.6277,-7.6275,-7.6273,-7.6272,-7.6488,-7.6495,-7.6503,0,0,0,0,0,0,0,0,0,0,0,0,0,0,0,0,0,0,0,0,0,0,0,0,0,0,0,0,0,0,0,0,0,0,0,0,0,0,0,0,0,0,0,0,0,0,0,0,0,0,0,0,0,0,0,0,0,0,0,0,0,0,0,0,0,0,0,0,0]}]]]